SCP
0 0 0 0 0 0 0 0 0 0 0 0 0 0 0 0 0 0 0 1 1 1 0 0 0 0 0 0 0 0 0 0 0 0 0 0 0 0 0 0 0 0 0
0 0 0 0 0 0 0 0 0 0 0 0 0 0 0 0 0 0 0 1 1 1 0 0 0 0 0 0 0 0 0 0 0 0 0 0 0 0 0 0 0 0 0
0 0 0 0 0 0 0 0 0 0 0 0 0 0 0 0 0 0 0 1 1 0 0 0 0 0 0 0 0 0 0 0 0 0 0 0 0 0 0 0 0 0 0
0 0 0 0 0 0 0 0 0 0 0 0 0 0 0 0 0 0 0 1 1 0 0 0 0 0 0 0 0 0 0 0 0 0 0 0 0 0 0 0 0 0 0
0 0 0 0 0 0 0 0 0 0 0 0 0 0 0 0 0 0 0 0 1 1 0 0 0 0 0 0 0 0 0 0 0 0 0 0 0 0 0 0 0 0 0
0 0 0 0 0 0 0 0 0 0 0 0 0 0 0 0 0 0 0 0 0 0 0 0 0 0 0 0 0 0 0 0 0 0 0 0 0 0 0 0 0 0 0
0 0 0 0 0 0 0 0 0 0 0 0 0 0 0 0 0 0 0 0 0 0 0 0 0 0 0 0 0 0 0 0 0 0 0 0 0 0 0 0 0 0 0
0 0 0 0 0 0 0 0 0 0 0 0 0 0 0 0 0 0 0 0 0 0 0 0 0 0 0 0 0 0 0 0 0 0 0 0 0 0 0 0 0 0 0
0 0 0 0 0 0 0 0 0 0 0 0 0 0 0 0 0 0 0 0 0 0 0 0 0 0 0 0 0 0 0 0 0 0 0 0 0 0 0 0 0 0 0
0 0 0 0 0 0 0 0 0 0 0 0 0 0 0 0 0 0 0 0 0 0 0 0 0 0 0 0 0 0 0 0 0 0 0 0 0 0 0 0 0 0 0
1 1 0 0 0 0 0 0 0 0 0 0 0 0 0 0 0 0 0 0 0 0 0 0 0 0 0 0 0 0 0 0 0 0 0 0 0 0 0 0 0 0 0
1 1 1 1 0 0 0 0 0 0 0 0 0 0 0 0 0 0 0 0 0 0 0 0 0 0 0 0 0 0 0 0 0 0 0 0 0 0 0 0 0 0 0
1 1 1 1 0 0 0 0 0 0 0 0 0 0 0 0 0 0 0 0 0 0 0 0 0 0 0 0 0 0 0 0 0 0 0 0 0 0 0 0 0 0 0
1 1 1 1 0 0 0 0 0 0 0 0 0 0 0 0 0 0 0 0 0 0 0 0 0 0 0 0 0 0 0 0 0 0 0 0 0 0 0 0 0 0 0
1 1 1 0 0 0 0 0 0 0 0 0 0 0 0 0 0 0 0 0 0 0 0 0 0 0 0 0 0 0 0 0 0 0 0 0 0 0 0 0 0 0 0
1 1 0 0 0 0 0 0 0 0 0 0 0 0 0 0 0 0 0 0 0 0 0 0 0 0 0 0 0 0 0 0 0 0 0 0 0 0 0 0 0 0 0
1 1 0 0 0 0 0 0 0 0 0 0 0 0 0 0 0 0 0 0 0 0 0 0 0 0 0 0 0 0 0 0 0 0 0 0 0 0 0 0 0 0 0
1 1 1 0 0 0 0 0 0 0 0 0 0 0 0 0 0 0 0 0 0 0 0 0 0 0 0 0 0 0 0 0 0 0 0 0 0 0 0 0 0 0 0
1 1 1 1 0 0 0 0 0 0 0 0 0 0 0 0 0 0 0 0 0 0 0 0 0 0 0 0 0 0 0 0 0 0 0 0 0 0 0 0 0 0 0
1 1 1 1 1 0 0 0 0 0 0 0 0 0 0 0 0 0 0 0 0 0 0 0 0 0 0 0 0 0 0 0 0 0 0 0 0 0 0 0 0 0 0
1 1 1 1 1 0 0 0 0 0 0 0 0 0 0 0 0 0 0 0 0 0 0 0 0 0 0 0 0 0 0 0 0 0 0 0 0 0 0 0 0 0 0
1 1 1 1 1 0 0 0 0 0 0 0 0 0 0 0 0 0 0 0 0 0 0 0 0 0 0 0 0 0 0 0 0 0 0 0 0 0 0 0 0 0 0
1 1 1 1 1 0 0 0 0 0 0 0 0 0 0 0 0 0 0 0 0 0 0 0 0 0 0 0 0 0 0 0 0 0 0 0 0 0 0 0 0 0 0
2 2 1 1 1 0 0 0 0 0 0 0 0 0 0 0 0 0 0 0 0 0 0 0 0 0 0 0 0 0 0 0 0 0 0 0 0 0 0 0 0 0 0
2 2 1 1 1 0 0 0 0 0 0 0 0 0 0 0 0 0 0 0 0 0 0 0 0 0 0 0 0 0 0 0 0 0 0 0 0 0 0 0 0 0 0
2 2 1 1 1 0 0 0 0 0 0 0 0 0 0 0 0 0 0 0 0 0 0 0 0 0 0 0 0 0 0 0 0 0 0 0 0 0 0 0 0 0 0
Wind_Speed
2 3 1 1 1 1 2 2 1 2 2 2 1 2 2 3 4 5 6 11 11 10 10 10 9 9 9 9 8 8 8 8 8 7 7 8 8 9 9 9 9 8 8
2 2 1 1 1 1 1 2 2 1 1 2 2 2 1 2 4 6 6 7 10 10 9 9 9 8 8 8 7 7 7 7 7 7 7 8 8 8 8 8 8 8 8
2 1 1 0 1 1 1 1 1 1 1 1 1 1 1 1 3 5 6 5 6 8 9 8 8 8 8 8 8 7 7 7 6 6 7 7 8 8 8 8 8 8 8
1 1 1 1 1 1 0 1 1 1 1 1 1 1 1 1 2 3 4 5 5 5 7 9 7 7 7 7 7 7 7 7 6 6 6 7 7 8 8 8 8 8 9
1 1 1 2 1 1 1 1 2 0 1 1 0 0 0 1 1 1 2 4 4 5 5 7 8 6 6 6 6 5 5 5 5 6 6 6 6 7 8 8 8 8 9
1 1 1 1 1 1 1 2 1 1 0 0 1 1 1 1 1 2 1 2 3 4 4 5 5 4 4 4 4 4 4 5 5 5 5 5 4 4 5 6 7 7 8
1 1 1 1 0 1 1 1 0 0 0 0 1 1 1 2 2 1 1 1 2 2 3 4 4 3 3 3 2 2 3 4 4 4 4 4 4 4 4 5 5 6 8
1 0 1 0 1 0 0 1 0 0 1 0 0 0 1 1 1 1 1 1 2 2 2 3 3 3 3 2 2 3 2 2 3 3 3 3 3 3 3 4 4 5 6
1 1 1 1 0 1 1 1 1 0 1 1 0 1 1 1 0 1 1 2 2 2 2 2 3 3 3 3 3 3 4 4 3 3 3 2 2 2 1 1 3 4 4
1 1 1 0 0 0 0 1 1 1 1 2 1 0 1 1 1 1 1 2 2 2 2 2 2 2 3 3 4 6 6 5 4 3 2 2 2 2 2 1 0 1 2
0 0 1 1 1 0 0 1 1 1 1 1 1 1 0 0 1 2 1 0 1 1 1 1 1 2 2 3 4 7 8 7 6 6 5 5 5 5 4 3 2 2 1
1 1 1 1 1 0 0 0 1 0 0 1 1 1 0 0 0 1 1 1 1 1 1 1 2 2 3 4 6 9 10 9 8 8 7 7 7 7 6 5 4 4 5
1 1 1 1 1 0 0 0 0 0 0 1 1 1 1 0 0 1 1 1 1 1 2 2 2 3 3 4 5 10 10 10 9 9 8 8 8 8 8 7 7 7 7
1 2 2 1 0 0 0 0 0 0 0 0 1 1 1 1 0 1 1 2 1 1 2 2 2 3 3 4 7 9 8 11 10 9 9 9 9 9 9 9 9 9 9
1 2 2 1 0 1 0 0 1 1 0 0 1 1 1 1 1 0 1 2 2 2 2 1 2 2 3 4 7 5 6 11 10 9 9 10 10 10 10 10 10 10 10
2 2 1 1 1 1 1 1 1 1 1 1 1 2 2 1 1 1 1 1 1 2 2 2 2 3 4 5 7 5 7 12 10 9 9 10 10 11 11 11 11 11 11
1 1 1 1 1 1 1 1 1 1 2 2 2 3 3 2 2 2 2 2 2 3 4 3 2 3 4 5 4 4 5 5 6 10 10 10 10 10 10 10 10 10 10
2 2 1 1 1 2 2 1 2 3 3 3 3 3 3 3 3 3 2 3 3 3 5 5 3 3 3 3 3 3 4 5 5 9 10 10 9 9 9 9 9 9 9
3 2 2 2 2 2 2 2 3 3 4 4 4 4 4 4 4 3 3 3 3 4 4 5 4 2 2 2 2 3 4 3 5 7 8 8 9 8 8 8 8 8 8
3 3 3 2 3 3 3 3 3 4 4 4 4 5 5 5 5 4 3 4 3 4 4 4 4 3 2 1 2 2 2 1 2 4 5 6 7 8 7 7 7 7 7
4 3 3 3 3 3 3 4 3 4 4 4 5 5 6 8 9 6 4 3 3 3 3 3 3 3 2 1 1 1 2 2 1 2 3 3 4 3 3 4 5 6 5
4 4 4 4 4 4 6 6 4 4 4 4 4 4 5 7 8 9 9 7 5 3 3 3 2 2 2 1 1 1 1 1 1 1 2 2 3 3 3 3 5 6 4
4 4 4 5 5 5 7 6 6 3 3 3 4 3 4 6 5 4 5 6 7 7 5 3 3 2 2 1 1 1 1 1 1 2 1 1 2 3 2 4 7 6 5
4 4 4 5 5 6 6 6 5 3 4 4 4 4 4 5 6 4 4 5 5 5 4 3 3 2 2 1 0 1 1 1 1 1 1 1 1 1 2 3 7 7 6
5 5 5 5 5 5 5 5 3 3 4 5 5 6 6 6 6 6 4 4 4 3 5 6 5 4 4 3 2 1 0 1 1 1 1 0 0 1 1 2 4 7 6
5 5 5 5 5 5 4 4 3 2 4 5 5 6 9 7 6 5 3 3 3 2 2 3 3 2 2 2 2 1 1 1 1 0 0 0 0 0 1 1 2 3 4
Wind_Direction
90 91 83 54 82 115 140 136 92 65 43 24 12 40 58 93 113 118 134 151 156 167 171 172 175 179 183 186 191 194 198 200 202 204 208 204 206 209 208 210 210 208 208
78 84 91 66 63 83 77 88 98 87 72 53 25 46 53 97 121 127 138 153 162 164 166 170 174 177 185 188 188 192 203 209 211 211 211 210 210 210 211 210 212 211 209
85 89 100 116 68 56 85 101 87 83 116 88 54 39 60 65 109 129 142 154 162 168 172 173 176 182 186 191 193 200 207 212 213 213 211 212 215 218 219 216 216 216 216
73 71 88 73 60 61 58 126 114 72 54 73 65 16 57 80 116 137 147 153 163 167 179 179 174 178 186 190 195 205 212 214 214 214 216 218 221 224 222 219 220 222 221
59 22 65 67 16 56 16 348 84 77 90 76 137 150 142 122 118 125 127 147 150 148 160 169 172 172 182 191 199 208 211 207 211 217 222 224 227 227 226 225 226 227 226
70 30 88 82 38 49 31 31 35 2 17 1 349 51 51 90 96 85 100 114 131 145 152 154 165 166 168 181 199 209 208 204 203 207 211 218 223 221 220 223 228 231 229
75 6 30 89 104 99 74 4 358 332 311 170 66 53 52 63 84 101 98 91 100 113 122 129 143 153 160 168 176 190 206 205 201 204 210 213 220 217 214 220 226 232 232
114 218 111 131 100 113 145 282 322 340 294 218 158 109 79 25 8 92 133 133 106 95 98 115 117 123 124 136 115 128 132 152 159 172 182 188 206 214 211 216 226 233 230
141 19 66 58 78 206 161 249 264 252 285 285 208 159 156 161 93 48 62 98 101 99 98 103 111 124 123 116 128 126 120 110 131 148 149 134 129 133 150 203 229 234 230
79 111 107 105 12 299 79 258 143 276 271 290 304 196 190 162 169 129 27 43 64 73 73 85 90 107 125 121 103 104 117 115 112 110 106 111 120 133 135 123 119 211 211
326 343 127 138 146 220 24 357 18 314 324 319 323 324 353 214 181 149 167 150 53 56 67 74 88 99 100 103 102 96 102 102 100 96 89 85 84 87 93 92 83 71 82
181 187 141 120 121 152 44 33 306 331 357 333 330 335 42 150 168 142 161 166 119 57 59 49 78 81 89 90 93 94 101 100 99 94 86 82 79 78 80 77 74 70 69
147 125 107 96 91 144 150 264 255 335 322 348 329 319 336 302 195 138 139 148 122 85 63 48 64 80 88 93 89 89 93 95 92 89 84 80 77 74 72 70 70 70 67
98 99 111 119 141 49 353 222 98 274 318 295 337 351 342 347 13 107 147 147 134 110 82 74 56 66 81 90 91 91 90 92 89 87 84 81 77 73 72 68 67 67 63
100 91 105 110 94 90 63 78 75 336 350 8 14 30 26 17 51 44 137 156 159 148 111 90 81 72 86 90 98 94 92 96 94 91 89 87 83 79 75 73 70 67 65
66 86 90 78 68 46 23 36 66 23 61 50 52 49 49 33 38 37 55 84 104 124 114 90 95 100 92 95 95 93 91 98 97 97 92 88 86 83 79 76 74 70 68
102 95 92 79 75 51 37 40 53 49 68 60 56 63 59 53 49 47 56 68 74 98 111 99 88 87 91 96 97 98 101 100 100 104 102 96 91 87 84 81 77 74 72
120 113 96 80 69 77 79 72 49 57 59 56 50 51 49 61 57 57 60 67 81 93 119 122 113 101 98 107 121 127 114 107 103 112 111 107 101 96 91 86 82 77 72
125 118 110 97 80 71 77 78 69 65 62 58 52 56 55 55 53 61 65 73 87 94 105 121 123 118 109 109 104 96 97 107 116 118 116 114 110 105 99 95 90 85 80
127 119 105 93 87 73 60 60 80 74 71 66 59 60 60 59 55 55 69 71 86 97 109 117 123 124 111 109 110 115 110 110 117 122 116 121 122 114 106 102 97 94 90
132 119 112 101 96 87 60 54 67 78 75 76 73 72 72 74 70 65 69 74 85 95 108 113 121 114 108 113 124 147 124 121 109 124 130 141 138 131 127 117 109 108 106
119 111 104 96 83 73 53 55 62 73 76 82 82 87 94 81 78 78 74 66 72 98 100 105 108 113 109 109 104 135 144 143 145 154 146 158 151 146 150 142 142 138 137
127 119 117 106 97 75 65 58 54 76 78 78 79 72 68 73 72 81 88 82 72 75 87 113 113 106 109 129 150 154 172 180 170 166 148 151 149 146 153 149 156 164 172
134 131 126 122 115 92 73 62 55 88 82 73 67 69 74 72 60 55 73 76 71 61 63 76 96 104 101 96 234 175 175 126 107 102 103 141 151 142 134 148 175 178 182
141 140 134 131 119 105 79 69 62 115 102 86 73 63 60 71 58 54 73 78 80 79 76 81 88 101 103 86 75 80 69 105 107 99 77 98 112 94 146 164 181 189 196
147 142 131 125 117 109 86 66 33 124 119 111 100 88 68 65 58 54 74 81 80 66 63 85 93 103 113 96 75 59 39 48 72 73 52 9 204 173 207 172 170 189 208